Home > Time Zones > World Clock > Weather > Iran > Tehran > Past weeks

Flag Weather past 2 weeks in Tehran, Iran

Now
55 °F

Clear.


Feels Like: 55 °F
Forecast: 48 / 62 °F
Wind: No wind

Location: Tehran-Mehrabad

Current Time: Oct 30, 2014 at 7:47:54 PM

Latest Report: Oct 30, 2014 at 7:30 PM


Visibility: 10 mi

Pressure: 30.18 "Hg

Humidity: 38%

Dew point: 30 °F

Location of TehranLocation

Historic Weather in Tehran — Graph

°F

Tehran temperature yesterday

Maximum temperature yesterday: 61 °F (at 3:00 PM)
Minimum temperature yesterday: 48 °F (at 6:30 AM)
Average temperature yesterday: 55 °F

Past Weeks' High & Low Weather Summary

 TemperatureHumidityPressure
High79 °F (Oct 16, 1:00 PM)93% (Oct 20, 10:30 AM)30.36 "Hg (Oct 20, 10:30 AM)
Low32 °F (Oct 20, 10:30 AM)12% (Oct 24, 5:00 PM)29.86 "Hg (Oct 19, 3:30 AM)
Average62 °F42%30.09 "Hg
* Reported Oct 15 6:30 PM — Oct 30 6:30 PM, Tehran, Weather by CustomWeather, © 2014

Note: Actual official high and low records may vary slightly from our data, if they occured in-between our weather recording intervals... More about our weather records

Advertising

Tehran weather history for previous 24 hours

 ConditionsComfort  
Time TempWeatherWind HumidityBarometerVisibility
6:30 PM
Oct 30
57 °FClear.5 mph36%30.15 "Hg10 mi
6:00 PM57 °FClear.5 mph36%30.15 "Hg10 mi
5:30 PM57 °FSunny.5 mph36%30.15 "Hg10 mi
5:00 PM59 °FPartly sunny.7 mph34%30.15 "HgN/A
4:30 PM59 °FPartly sunny.9 mph34%30.15 "HgN/A
4:00 PM61 °FPartly sunny.7 mph31%30.15 "HgN/A
3:30 PM61 °FPartly sunny.7 mph31%30.18 "HgN/A
3:00 PM59 °FScattered clouds.5 mph34%30.18 "HgN/A
2:30 PM61 °FScattered clouds.7 mph31%30.18 "HgN/A
2:00 PM61 °FPassing clouds.7 mph31%30.18 "HgN/A
1:30 PM59 °FPassing clouds.9 mph34%30.21 "HgN/A
1:00 PM59 °FPassing clouds.7 mph34%30.21 "HgN/A
12:30 PM59 °FPassing clouds.7 mph34%30.21 "HgN/A
12:00 PM57 °FPassing clouds.12 mph36%30.21 "HgN/A
11:30 AM57 °FPassing clouds.7 mph39%30.24 "HgN/A
11:00 AM57 °FPassing clouds.9 mph36%30.24 "HgN/A
10:30 AM55 °FPassing clouds.7 mph36%30.27 "HgN/A
10:00 AM55 °FPassing clouds.7 mph36%30.27 "HgN/A
9:30 AM55 °FPassing clouds.7 mph36%30.27 "HgN/A
9:00 AM55 °FSunny.5 mph38%30.27 "Hg10 mi
8:30 AM54 °FSunny.5 mph41%30.27 "Hg10 mi
8:00 AM54 °FSunny.No wind41%30.27 "Hg10 mi
7:30 AM52 °FSunny.No wind47%30.27 "Hg10 mi
7:00 AM48 °FSunny.5 mph54%30.24 "Hg10 mi
6:30 AM48 °FClear.5 mph54%30.24 "Hg10 mi
6:00 AM48 °FClear.No wind58%30.24 "Hg10 mi
5:30 AM48 °FClear.No wind58%30.24 "Hg10 mi
5:00 AM50 °FClear.No wind50%30.24 "Hg10 mi
4:30 AM50 °FClear.No wind50%30.24 "Hg10 mi
4:00 AM50 °FClear.5 mph54%30.24 "Hg10 mi
3:30 AM50 °FClear.5 mph54%30.24 "Hg10 mi
2:30 AM50 °FClear.No wind50%30.24 "Hg10 mi
2:00 AM50 °FClear.No wind54%30.24 "Hg10 mi
1:30 AM50 °FClear.No wind54%30.24 "Hg10 mi
12:30 AM52 °FClear.5 mph50%30.24 "Hg10 mi
12:00 AM55 °FClear.5 mph38%30.24 "Hg10 mi
11:30 PM
Oct 29
55 °FClear.5 mph38%30.24 "Hg10 mi
10:50 PM55 °FClear.7 mph38%30.24 "Hg10 mi
10:30 PM55 °FClear.7 mph38%30.24 "Hg10 mi
10:00 PM55 °FClear.7 mph38%30.24 "Hg10 mi
9:30 PM55 °FClear.7 mph38%30.24 "Hg10 mi
9:00 PM55 °FClear.7 mph38%30.24 "Hg10 mi
8:30 PM57 °FClear.5 mph36%30.24 "Hg10 mi
8:00 PM55 °FPassing clouds.5 mph38%30.24 "HgN/A
7:30 PM57 °FPassing clouds.5 mph36%30.24 "HgN/A
7:00 PM57 °FPassing clouds.5 mph36%30.24 "HgN/A
Weather by CustomWeather, © 2014

See weather overviewHow to use our weather pages